Change the Weather History Date:

Saturday, May 4, 2013

  Actual Average Record
Temperature  
Mean Temperature 51 °F 61 °F  
Max Temperature 69 °F 76 °F 99 °F (2014)
Min Temperature 32 °F 46 °F 32 °F (2013)
Degree Days  
Heating Degree Days 14 5  
Month to date heating degree days 67 22  
Since 1 July heating degree days 4280 4375  
Cooling Degree Days 0 1  
Month to date cooling degree days 0 4  
Year to date cooling degree days 25 19  
Moisture  
Dew Point 18 °F    
Average Humidity 33    
Maximum Humidity 56    
Minimum Humidity 10    
Precipitation  
Precipitation 0.00 in 0.06 in 0.47 in (2001)
Month to date precipitation 0.02 0.19  
Year to date precipitation 2.21 4.00  
Snow  
Snow 0.00 in - - ()
Month to date snowfall 0.3  
Since 1 July snowfall 22.3  
Snow Depth 0.00 in    
Sea Level Pressure  
Sea Level Pressure 30.04 in    
Wind  
Wind Speed 13 mph (North)    
Max Wind Speed 26 mph    
Max Gust Speed 33 mph    
Visibility 10 miles    
Events      
T = Trace of Precipitation, MM = Missing Value Source: NWS Daily Summary

Daily Weather History Graph

Daily Weather History Graph

Search for Another Location

Airport or City:

Trip Planner

Search our weather history database for the weather conditions in past years. The results will help you decide how hot, cold, wet, or windy it might be!

Date:

Astronomy

May. 04, 2013 Rise Set
Actual Time 6:48 AM CDT 8:37 PM CDT
Civil Twilight 6:20 AM CDT 9:05 PM CDT
Nautical Twilight 5:46 AM CDT 9:39 PM CDT
Astronomical Twilight 5:10 AM CDT 10:15 PM CDT
Moon 3:39 AM CDT (5/4) 3:44 PM CDT (5/4)
Length of Visible Light 14h 44m
Length of Day
13h 48m
Waning Crescent, 27% of the Moon is Illuminated
May 4
Waning Crescent
May 9
New
May 17
First Quarter
May 24
Full
May 31
Last Quarter

Hourly Weather History & Observations

Time (CDT) Temp. Windchill Dew Point Humidity Pressure Visibility Wind Dir Wind Speed Gust Speed Precip Events Conditions
12:53 AM 39.9 °F 37.8 °F 23.0 °F 51% 30.05 in 10.0 mi West 3.5 mph - N/A   Clear
1:53 AM 41.0 °F 36.4 °F 23.0 °F 49% 30.05 in 10.0 mi WNW 6.9 mph - N/A   Clear
2:53 AM 43.0 °F 38.2 °F 21.9 °F 43% 30.03 in 10.0 mi WNW 8.1 mph - N/A   Clear
3:53 AM 39.0 °F 32.8 °F 21.9 °F 50% 30.02 in 10.0 mi West 9.2 mph - N/A   Clear
4:53 AM 37.9 °F 30.9 °F 21.0 °F 51% 30.02 in 10.0 mi WNW 10.4 mph - N/A   Clear
5:53 AM 35.1 °F - 21.0 °F 57% 30.03 in 10.0 mi Calm Calm - N/A   Clear
6:53 AM 33.1 °F 26.9 °F 19.9 °F 59% 30.04 in 10.0 mi NNW 6.9 mph - N/A   Clear
7:53 AM 39.9 °F 32.1 °F 23.0 °F 51% 30.06 in 10.0 mi NNW 13.8 mph - N/A   Clear
8:53 AM 45.0 °F 38.9 °F 24.1 °F 44% 30.06 in 10.0 mi North 12.7 mph - N/A   Clear
9:53 AM 48.9 °F - 19.0 °F 31% 30.06 in 10.0 mi NNE 15.0 mph - N/A   Clear
10:53 AM 53.1 °F - 19.0 °F 26% 30.06 in 10.0 mi North 11.5 mph - N/A   Clear
11:53 AM 57.9 °F - 21.0 °F 24% 30.06 in 10.0 mi North 13.8 mph 24.2 mph N/A   Clear
12:53 PM 61.0 °F - 21.9 °F 22% 30.05 in 10.0 mi North 16.1 mph 21.9 mph N/A   Clear
1:53 PM 63.0 °F - 19.9 °F 19% 30.02 in 10.0 mi NNE 19.6 mph 31.1 mph N/A   Clear
2:53 PM 66.0 °F - 19.0 °F 17% 30.00 in 10.0 mi North 20.7 mph 32.2 mph N/A   Clear
3:53 PM 66.9 °F - 19.0 °F 16% 29.99 in 10.0 mi North 20.7 mph 29.9 mph N/A   Clear
4:53 PM 68.0 °F - 15.1 °F 13% 29.98 in 10.0 mi NNE 18.4 mph 31.1 mph N/A   Clear
5:53 PM 66.9 °F - 15.1 °F 14% 29.99 in 10.0 mi North 24.2 mph 29.9 mph N/A   Clear
6:53 PM 64.9 °F - 7.0 °F 10% 30.01 in 10.0 mi North 19.6 mph 27.6 mph N/A   Clear
7:53 PM 62.1 °F - 7.0 °F 11% 30.02 in 10.0 mi NNE 17.3 mph 24.2 mph N/A   Clear
8:53 PM 55.9 °F - 10.0 °F 16% 30.05 in 10.0 mi NNE 9.2 mph - N/A   Clear
9:53 PM 52.0 °F - 12.9 °F 21% 30.09 in 10.0 mi NNE 9.2 mph - N/A   Clear
10:53 PM 46.9 °F - 15.1 °F 28% 30.11 in 10.0 mi NNE 8.1 mph - N/A   Clear
11:53 PM 46.0 °F 41.9 °F 18.0 °F 33% 30.12 in 10.0 mi NE 8.1 mph - N/A   Clear